Terug naar catalogus

COSMOS 1275 DEB

ActiefPO
NORAD 13808·DEBRIS·🇷🇺 Russia

Gelanceerd Jun 4, 1981 vanaf Plesetsk Cosmodrome

Loading…

Volgende Passages (komende 24 uur)

TLE

VersSource: Space-Track

Epoch: Sep 14, 2026, 19:44 UTC

1 13808U 81053HC  26257.82249431  .00000918  00000-0  67269-3 0  9993
2 13808  83.0284 271.5895 0058050 226.1427 309.9626 13.94090158202779

Volg COSMOS 1275 DEB in realtime met AllMySat

Download on the App Store